Simultaneous Nadir Overpasses (SNOs) Predictions

Prediction of SNOs between METOP-B and NOAA-19 Satellite Orbit:

Table of predicted SNOs for the next 14.0 days since TLE Epoch: 12/23/2023
Index Date (METOP-B) Time (METOP-B) Lat,Lon (METOP-B) SZA (METOP-B ) Date (NOAA-19) Time (NOAA-19) Lat,Lon (NOAA-19) SZA (NOAA-19 ) Distance(km) Time Diff (sec)
1 12/26/2023 05:26:30 -80.50, -55.09 75.24 12/26/2023 05:25:28 -80.51, -54.99 75.25 1.83 62
2 12/26/2023 06:17:11 80.50, 112.18 104.76 12/26/2023 06:16:25 80.50, 112.03 104.73 2.77 46
3 12/26/2023 07:07:51 -80.52, -80.17 75.20 12/26/2023 07:07:26 -80.52, -80.30 75.23 2.51 25
4 12/26/2023 07:58:31 80.54, 87.43 104.84 12/26/2023 07:58:21 80.54, 87.41 104.83 0.63 10
5 12/26/2023 08:49:12 -80.54,-105.25 75.17 12/26/2023 08:49:23 -80.54,-105.26 75.17 0.34 11
6 12/26/2023 09:39:52 80.56, 62.36 104.87 12/26/2023 09:40:18 80.57, 62.45 104.89 1.65 26
7 12/26/2023 10:30:33 -80.56,-130.32 75.14 12/26/2023 10:31:20 -80.57,-130.23 75.11 1.95 47



Historial Predications of SNOs between METOP-B and NOAA-19
